GW6235 Weather Reports


time (UTC)temp
C
wind
direction
speed
KPH
gust
KPH
rain 1hr
cm
rain 24hr
cm
rain mn
cm
humidity
%
barometer
mb
20260906132246 27 167 1.6 1.6 0.00 0.00 0.00 80 1014.8
20260906131742 27 261 0.0 1.6 0.00 0.00 0.00 80 1014.9
20260906131236 26 281 1.6 1.6 0.00 0.00 0.00 84 1014.9
20260906130732 25 226 0.0 0.0 0.00 0.00 0.00 85 1015.0
20260906130227 25 319 1.6 3.2 0.00 0.00 0.00 87 1015.2
20260906125725 25 269 3.2 3.2 0.00 0.00 0.00 88 1015.1
20260906125223 25 279 3.2 3.2 0.00 0.00 0.00 88 1015.0
20260906124718 24 286 3.2 3.2 0.00 0.00 0.00 89 1015.1
20260906124214 23 287 3.2 3.2 0.00 0.00 0.00 90 1015.0
20260906123712 23 237 1.6 1.6 0.00 0.00 0.00 92 1015.2
20260906123208 23 249 1.6 3.2 0.00 0.00 0.00 92 1015.2
20260906122707 23 239 0.0 0.0 0.00 0.00 0.00 93 1015.2
20260906122203 23 258 0.0 1.6 0.00 0.00 0.00 94 1015.0
20260906121659 23 274 1.6 3.2 0.00 0.00 0.00 94 1014.9
20260906121155 23 266 0.0 0.0 0.00 0.00 0.00 95 1015.0
20260906120651 22 234 0.0 0.0 0.00 0.00 0.00 95 1014.8
20260906120148 22 239 0.0 0.0 0.00 0.00 0.00 95 1015.0
20260906115648 22 234 0.0 0.0 0.00 0.00 0.00 96 1014.8
20260906115143 22 234 0.0 0.0 0.00 0.00 0.00 96 1014.8
20260906114642 22 234 0.0 0.0 0.00 0.00 0.00 96 1014.7
20260906114137 22 235 0.0 0.0 0.00 0.00 0.00 96 1014.6
20260906113637 22 240 0.0 0.0 0.00 0.00 0.00 96 1014.3
20260906113132 22 250 0.0 0.0 0.00 0.00 0.00 96 1014.5
20260906112631 22 234 0.0 0.0 0.00 0.00 0.00 96 1014.4
20260906112129 22 219 0.0 0.0 0.00 0.00 0.00 96 1014.2
20260906111628 22 208 0.0 0.0 0.00 0.00 0.00 95 1014.4
20260906111123 22 204 0.0 0.0 0.00 0.00 0.00 95 1014.2
20260906110618 22 217 0.0 0.0 0.00 0.00 0.00 95 1014.2
20260906110118 22 219 0.0 0.0 0.00 0.00 0.00 95 1014.0
20260906105612 22 220 0.0 0.0 0.00 0.00 0.00 94 1014.2
20260906105108 22 272 0.0 1.6 0.00 0.00 0.00 94 1014.1
20260906104608 22 279 1.6 1.6 0.00 0.00 0.00 93 1014.0
20260906104101 22 278 1.6 1.6 0.00 0.00 0.00 93 1013.9
20260906103600 22 260 0.0 1.6 0.00 0.00 0.00 93 1013.8
20260906103055 22 236 1.6 1.6 0.00 0.00 0.00 93 1013.8
20260906102555 22 241 0.0 0.0 0.00 0.00 0.00 93 1014.0
20260906102050 22 242 0.0 0.0 0.00 0.00 0.00 93 1013.8
20260906101545 22 224 0.0 0.0 0.00 0.00 0.00 93 1013.8
20260906101039 22 238 0.0 0.0 0.00 0.00 0.00 93 1013.8
20260906100536 22 244 0.0 1.6 0.00 0.00 0.00 93 1014.0
20260906100035 22 254 1.6 1.6 0.00 0.00 0.00 93 1013.8
20260906095530 22 237 1.6 1.6 0.00 0.00 0.00 93 1014.0
20260906095026 22 253 1.6 3.2 0.00 0.00 0.00 93 1014.0
20260906094525 23 273 1.6 3.2 0.00 0.00 0.00 93 1013.8
20260906094021 23 274 1.6 3.2 0.00 0.00 0.00 93 1013.9
20260906093516 23 295 1.6 3.2 0.00 0.00 0.00 93 1013.9
20260906093010 23 237 0.0 0.0 0.00 0.00 0.00 94 1014.1
20260906092505 23 226 0.0 0.0 0.00 0.00 0.00 94 1013.8
20260906092000 23 253 3.2 3.2 0.00 0.00 0.00 95 1013.9
20260906091456 23 213 0.0 0.0 0.00 0.00 0.00 95 1013.8
20260906090953 22 202 0.0 0.0 0.00 0.00 0.00 94 1013.8
20260906090448 22 233 0.0 0.0 0.00 0.00 0.00 94 1013.8
20260906085947 22 253 0.0 0.0 0.00 0.00 0.00 94 1013.9
20260906085446 22 210 0.0 0.0 0.00 0.00 0.00 93 1013.6
20260906084946 23 207 0.0 0.0 0.00 0.00 0.00 93 1013.5
20260906084441 23 198 0.0 0.0 0.00 0.00 0.00 93 1013.5
20260906083939 23 241 0.0 0.0 0.00 0.00 0.00 93 1013.3
20260906083436 23 236 0.0 0.0 0.00 0.00 0.00 93 1013.6
20260906082934 23 254 1.6 3.2 0.00 0.00 0.00 94 1013.6
20260906082430 23 237 1.6 1.6 0.00 0.00 0.00 94 1013.4
20260906081926 23 252 0.0 0.0 0.00 0.00 0.00 94 1013.6
20260906081421 23 336 1.6 1.6 0.00 0.00 0.00 94 1013.5
20260906080917 23 304 1.6 3.2 0.00 0.00 0.00 94 1013.5
20260906080414 23 247 0.0 0.0 0.00 0.00 0.00 94 1013.3
20260906075913 23 233 0.0 0.0 0.00 0.00 0.00 94 1013.2
20260906075408 23 257 1.6 1.6 0.00 0.00 0.00 94 1013.3
20260906074903 23 261 1.6 1.6 0.00 0.00 0.00 94 1013.2
20260906074402 23 290 3.2 3.2 0.00 0.00 0.00 94 1013.4
20260906073901 23 215 1.6 1.6 0.00 0.00 0.00 94 1013.3
20260906073356 23 269 1.6 1.6 0.00 0.00 0.00 93 1013.2
20260906072853 23 257 1.6 3.2 0.00 0.00 0.00 93 1013.2
20260906072348 24 212 0.0 0.0 0.00 0.00 0.00 93 1013.1
20260906071844 24 227 0.0 0.0 0.00 0.00 0.00 92 1013.3
20260906071339 24 308 3.2 3.2 0.00 0.00 0.00 92 1013.3
20260906070836 24 235 0.0 0.0 0.00 0.00 0.00 92 1013.4
20260906070331 24 0 1.6 1.6 0.00 0.00 0.00 92 1013.3
20260906065827 24 260 1.6 1.6 0.00 0.00 0.00 91 1013.3
20260906065321 24 294 1.6 3.2 0.00 0.00 0.00 91 1013.4
20260906064817 24 235 0.0 0.0 0.00 0.00 0.00 91 1013.5
20260906064313 25 334 3.2 3.2 0.00 0.00 0.00 91 1013.5
20260906063812 25 234 0.0 0.0 0.00 0.00 0.00 91 1013.6
20260906063308 25 236 1.6 1.6 0.00 0.00 0.00 91 1013.3
20260906062803 25 231 0.0 0.0 0.00 0.00 0.00 91 1013.4
20260906062305 25 251 0.0 1.6 0.00 0.00 0.00 91 1013.5
20260906061758 25 250 0.0 0.0 0.00 0.00 0.00 91 1013.8
20260906061255 25 229 0.0 1.6 0.00 0.00 0.00 91 1013.7
20260906060755 25 261 1.6 1.6 0.00 0.00 0.00 91 1014.0
20260906060252 25 215 0.0 1.6 0.00 0.00 0.00 91 1013.9
20260906055748 25 277 1.6 1.6 0.00 0.00 0.00 90 1014.2
20260906055243 25 281 1.6 3.2 0.00 0.00 0.00 91 1014.0
20260906054738 25 209 0.0 0.0 0.00 0.00 0.00 91 1014.3
20260906054233 25 155 0.0 1.6 0.00 0.00 0.00 91 1014.0
20260906053730 25 244 0.0 0.0 0.00 0.00 0.00 91 1014.3
20260906053225 25 275 1.6 3.2 0.00 0.00 0.00 92 1014.3
20260906052720 25 273 3.2 3.2 0.00 0.00 0.00 93 1014.6
20260906052217 25 326 3.2 3.2 0.00 0.00 0.00 94 1014.7
20260906051714 25 240 1.6 3.2 0.00 0.00 0.00 94 1014.6
20260906051213 25 327 6.4 11.3 0.00 0.00 0.00 94 1014.8
20260906050708 25 286 6.4 9.7 0.00 0.00 0.00 94 1014.6
20260906050203 25 322 4.8 4.8 0.00 0.00 0.00 94 1014.8
20260906045701 25 288 4.8 6.4 0.00 0.00 0.00 94 1014.4
20260906045157 25 235 0.0 0.0 0.00 0.00 0.00 94 1014.3
20260906044653 25 242 1.6 1.6 0.00 0.00 0.00 94 1014.2
20260906044148 25 186 0.0 1.6 0.00 0.00 0.00 94 1014.1
20260906043644 25 157 1.6 1.6 0.00 0.00 0.00 93 1014.1
20260906043140 25 181 1.6 1.6 0.00 0.00 0.00 93 1013.9
20260906042639 25 126 1.6 3.2 0.00 0.00 0.00 93 1013.6
20260906042133 25 189 0.0 0.0 0.00 0.00 0.00 93 1013.8
20260906041630 25 199 0.0 0.0 0.00 0.00 0.00 93 1013.8
20260906041130 25 155 0.0 1.6 0.00 0.00 0.00 93 1014.0
20260906040625 25 147 1.6 1.6 0.00 0.00 0.00 93 1014.1
20260906040120 25 158 0.0 0.0 0.00 0.00 0.00 92 1013.9
20260906035615 25 176 0.0 0.0 0.00 0.00 0.00 91 1014.0
20260906035112 26 194 0.0 0.0 0.00 0.00 0.00 90 1013.9
20260906034611 26 199 0.0 0.0 0.00 0.00 0.00 90 1014.1
20260906034106 26 189 1.6 1.6 0.00 0.00 0.00 90 1014.1
20260906033602 26 206 1.6 1.6 0.00 0.00 0.00 89 1014.3
20260906033057 26 269 1.6 1.6 0.00 0.00 0.00 89 1014.4
20260906032554 26 212 0.0 0.0 0.00 0.00 0.00 88 1014.1
20260906032053 26 219 0.0 1.6 0.00 0.00 0.00 88 1014.1
20260906031549 26 231 1.6 1.6 0.00 0.00 0.00 88 1014.2
20260906031044 26 240 0.0 0.0 0.00 0.00 0.00 88 1014.1
20260906030544 26 243 1.6 1.6 0.00 0.00 0.00 88 1014.0
20260906030044 26 213 0.0 0.0 0.00 0.00 0.00 88 1014.1
20260906025543 26 221 0.0 0.0 0.00 0.00 0.00 87 1014.0
20260906025042 26 231 0.0 0.0 0.00 0.00 0.00 86 1014.2
20260906024537 26 231 0.0 0.0 0.00 0.00 0.00 85 1014.4
20260906024037 27 242 3.2 3.2 0.00 0.00 0.00 85 1014.3
20260906023533 27 247 0.0 1.6 0.00 0.00 0.00 85 1014.4
20260906023028 27 235 0.0 0.0 0.00 0.00 0.00 84 1014.5
20260906022523 27 216 1.6 1.6 0.00 0.00 0.00 84 1014.4
20260906022019 27 243 3.2 4.8 0.00 0.00 0.00 84 1014.4
20260906021514 27 241 1.6 3.2 0.00 0.00 0.00 83 1014.4
20260906021008 27 226 0.0 0.0 0.00 0.00 0.00 83 1014.7
20260906020507 27 277 1.6 1.6 0.00 0.00 0.00 82 1014.6
20260906020007 27 223 1.6 1.6 0.00 0.00 0.00 82 1014.4
20260906015506 27 281 3.2 3.2 0.00 0.00 0.00 83 1014.8
20260906015007 27 290 3.2 4.8 0.00 0.00 0.00 83 1014.7
20260906014501 27 235 6.4 6.4 0.00 0.00 0.00 84 1014.7
20260906013957 27 309 9.7 14.5 0.00 0.00 0.00 87 1014.7
20260906013452 27 290 6.4 9.7 0.00 0.00 0.00 87 1014.6
20260906012948 27 266 1.6 1.6 0.00 0.00 0.00 87 1014.4
20260906012442 27 243 3.2 3.2 0.00 0.00 0.00 88 1014.3
20260906011942 27 310 3.2 4.8 0.00 0.00 0.00 88 1014.1
20260906011437 27 294 1.6 1.6 0.00 0.00 0.00 88 1013.8
20260906010932 27 255 0.0 1.6 0.00 0.00 0.00 87 1013.8
20260906010428 27 252 0.0 0.0 0.00 0.00 0.00 87 1013.7
20260906005924 28 242 0.0 0.0 0.00 0.00 0.00 86 1013.5
20260906005423 28 235 1.6 1.6 0.00 0.00 0.00 86 1013.6
20260906004922 28 233 0.0 0.0 0.00 0.00 0.00 86 1013.4
20260906004416 28 237 0.0 0.0 0.00 0.00 0.00 85 1013.5
20260906003912 28 238 3.2 3.2 0.00 0.00 0.00 85 1013.6
20260906003407 28 280 1.6 1.6 0.00 0.00 0.00 84 1013.5
20260906002902 28 238 0.0 0.0 0.00 0.00 0.00 84 1013.3
20260906002402 28 250 1.6 1.6 0.00 0.00 0.00 83 1013.6
20260906001857 28 250 1.6 1.6 0.00 0.00 0.00 83 1013.4
20260906001354 28 268 1.6 1.6 0.00 0.00 0.00 82 1013.0
20260906000854 28 250 1.6 1.6 0.00 0.00 0.00 82 1012.7
20260906000355 28 282 1.6 1.6 0.00 0.00 0.00 82 1013.0
20260905235848 28 243 1.6 3.2 0.00 0.00 0.00 81 1013.0
20260905235343 28 224 0.0 0.0 0.00 0.00 0.00 82 1013.0
20260905234838 28 266 1.6 3.2 0.00 0.00 0.00 81 1013.0
20260905234333 28 241 0.0 1.6 0.00 0.00 0.00 81 1013.3
20260905233828 29 308 3.2 3.2 0.00 0.00 0.00 81 1013.2
20260905233323 29 217 0.0 0.0 0.00 0.00 0.00 81 1013.2
20260905232822 29 222 0.0 0.0 0.00 0.00 0.00 81 1012.9
20260905232319 29 266 0.0 1.6 0.00 0.00 0.00 80 1013.1
20260905231814 29 228 0.0 1.6 0.00 0.00 0.00 79 1013.2
20260905231309 30 249 3.2 4.8 0.00 0.00 0.00 78 1013.0
20260905230805 30 248 1.6 3.2 0.00 0.00 0.00 77 1013.1
20260905230303 30 240 1.6 1.6 0.00 0.00 0.00 77 1013.2
20260905225803 30 235 0.0 0.0 0.00 0.00 0.00 77 1013.2
20260905225258 30 223 4.8 4.8 0.00 0.00 0.00 77 1013.2
20260905224757 30 249 1.6 1.6 0.00 0.00 0.00 77 1013.3
20260905224253 30 186 0.0 1.6 0.00 0.00 0.00 76 1013.1
20260905223748 30 255 4.8 6.4 0.00 0.00 0.00 76 1013.4
20260905223246 30 244 3.2 4.8 0.00 0.00 0.00 76 1013.3
20260905222741 30 247 3.2 3.2 0.00 0.00 0.00 76 1013.2
20260905222240 30 221 8.0 9.7 0.00 0.00 0.00 77 1013.2
20260905221736 30 270 6.4 9.7 0.00 0.00 0.00 76 1013.0
20260905221233 31 251 3.2 3.2 0.00 0.00 0.00 76 1013.3
20260905220728 31 255 8.0 9.7 0.00 0.00 0.00 75 1013.4
20260905220224 31 236 3.2 4.8 0.00 0.00 0.00 75 1013.3
20260905215723 31 217 3.2 4.8 0.00 0.00 0.00 74 1013.4
20260905215219 31 237 4.8 4.8 0.00 0.00 0.00 74 1013.1
20260905214715 31 260 4.8 4.8 0.00 0.00 0.00 74 1013.1
20260905214210 31 257 6.4 9.7 0.00 0.00 0.00 74 1013.0
20260905213705 31 270 4.8 9.7 0.00 0.00 0.00 73 1013.1
20260905213201 32 262 3.2 4.8 0.00 0.00 0.00 73 1013.2
20260905212656 32 234 1.6 3.2 0.00 0.00 0.00 71 1013.3
20260905212155 32 268 4.8 4.8 0.00 0.00 0.00 73 1013.2
20260905211650 32 269 4.8 4.8 0.00 0.00 0.00 72 1013.2
20260905211145 32 289 6.4 6.4 0.00 0.00 0.00 70 1013.0
20260905210643 32 242 6.4 6.4 0.00 0.00 0.00 69 1013.0
20260905210142 33 113 3.2 3.2 0.00 0.00 0.00 69 1013.2
20260905205641 32 234 1.6 3.2 0.00 0.00 0.00 70 1013.2
20260905205136 32 355 1.6 3.2 0.00 0.00 0.00 69 1012.9
20260905204635 33 259 6.4 6.4 0.00 0.00 0.00 69 1013.0
20260905204131 33 249 6.4 6.4 0.00 0.00 0.00 69 1013.1
20260905203631 33 218 4.8 4.8 0.00 0.00 0.00 68 1013.1
20260905203126 33 240 4.8 4.8 0.00 0.00 0.00 68 1013.1
20260905202622 33 235 3.2 3.2 0.00 0.00 0.00 68 1013.1
20260905202117 33 275 0.0 1.6 0.00 0.00 0.00 67 1013.3
20260905201613 33 221 0.0 0.0 0.00 0.00 0.00 65 1013.1
20260905201112 33 232 1.6 1.6 0.00 0.00 0.00 64 1013.2
20260905200608 33 237 1.6 4.8 0.00 0.00 0.00 65 1013.3
20260905195601 33 249 3.2 3.2 0.00 0.00 0.00 63 1013.7
20260905195057 33 250 1.6 1.6 0.00 0.00 0.00 63 1013.6
20260905194556 33 269 4.8 4.8 0.00 0.00 0.00 64 1013.8
20260905194056 33 229 3.2 9.7 0.00 0.00 0.00 63 1013.9
20260905193551 33 302 3.2 4.8 0.00 0.00 0.00 65 1014.0
20260905193046 35 273 8.0 9.7 0.00 0.00 0.00 61 1014.1
20260905192541 33 3 6.4 6.4 0.00 0.00 0.00 64 1014.2
20260905192038 35 283 4.8 6.4 0.00 0.00 0.00 64 1014.3
20260905191536 35 336 4.8 6.4 0.00 0.00 0.00 62 1014.4
20260905191036 35 233 1.6 3.2 0.00 0.00 0.00 62 1014.4
20260905190533 34 231 3.2 3.2 0.00 0.00 0.00 61 1014.4
20260905190027 34 136 0.0 1.6 0.00 0.00 0.00 62 1014.4
20260905185527 34 196 1.6 3.2 0.00 0.00 0.00 62 1014.5
20260905185026 33 143 1.6 1.6 0.00 0.00 0.00 66 1014.2
20260905184526 34 256 4.8 6.4 0.00 0.00 0.00 64 1014.1
20260905184025 33 138 1.6 3.2 0.00 0.00 0.00 67 1014.3
20260905183520 33 225 1.6 1.6 0.00 0.00 0.00 67 1014.4
20260905183015 32 104 3.2 3.2 0.00 0.00 0.00 69 1014.5
20260905182514 34 108 8.0 9.7 0.00 0.00 0.00 66 1014.6
20260905182009 33 208 3.2 4.8 0.00 0.00 0.00 67 1014.6
20260905181504 33 150 1.6 3.2 0.00 0.00 0.00 68 1014.8
20260905181003 33 303 4.8 4.8 0.00 0.00 0.00 70 1015.0
20260905180458 33 91 4.8 6.4 0.00 0.00 0.00 71 1014.9
20260905175953 32 177 3.2 4.8 0.00 0.00 0.00 71 1015.2
20260905175453 33 153 3.2 4.8 0.00 0.00 0.00 71 1015.2
20260905174949 32 236 3.2 4.8 0.00 0.00 0.00 70 1015.1
20260905174449 32 141 1.6 3.2 0.00 0.00 0.00 73 1015.2
20260905173945 33 236 4.8 4.8 0.00 0.00 0.00 72 1015.4
20260905173441 32 273 1.6 1.6 0.00 0.00 0.00 73 1015.4
20260905172936 31 237 3.2 4.8 0.00 0.00 0.00 75 1015.5
20260905172434 31 31 3.2 4.8 0.00 0.00 0.00 76 1015.6
20260905171930 32 278 6.4 6.4 0.00 0.00 0.00 75 1015.6
20260905171426 32 252 1.6 3.2 0.00 0.00 0.00 76 1015.7
20260905170922 32 250 3.2 3.2 0.00 0.00 0.00 77 1015.8
20260905170418 32 149 3.2 3.2 0.00 0.00 0.00 78 1015.8
20260905165918 32 232 1.6 1.6 0.00 0.00 0.00 77 1015.8
20260905165413 31 213 0.0 0.0 0.00 0.00 0.00 77 1015.9
20260905164909 30 342 3.2 4.8 0.00 0.00 0.00 80 1015.9
20260905164408 31 348 6.4 6.4 0.00 0.00 0.00 79 1016.0
20260905163903 31 340 4.8 4.8 0.00 0.00 0.00 78 1016.4
20260905163400 31 222 0.0 0.0 0.00 0.00 0.00 80 1016.3
20260905162856 31 208 1.6 1.6 0.00 0.00 0.00 77 1016.3
20260905162355 31 323 4.8 4.8 0.00 0.00 0.00 78 1016.5
20260905161850 31 0 3.2 3.2 0.00 0.00 0.00 79 1016.4
20260905161350 31 199 3.2 4.8 0.00 0.00 0.00 77 1016.4
20260905160848 30 215 0.0 1.6 0.00 0.00 0.00 79 1016.6
20260905160342 31 143 4.8 4.8 0.00 0.00 0.00 81 1016.5
20260905155837 30 161 3.2 3.2 0.00 0.00 0.00 81 1016.6
20260905155337 30 186 1.6 3.2 0.00 0.00 0.00 82 1016.5
20260905154836 30 105 3.2 4.8 0.00 0.00 0.00 86 1016.6
20260905154332 30 132 3.2 3.2 0.00 0.00 0.00 84 1016.4
20260905153827 30 227 0.0 1.6 0.00 0.00 0.00 83 1016.5
20260905153324 30 240 1.6 1.6 0.00 0.00 0.00 85 1016.5
20260905152823 30 229 1.6 3.2 0.00 0.00 0.00 85 1016.6
20260905152322 30 231 4.8 4.8 0.00 0.00 0.00 84 1016.8
20260905151818 30 71 3.2 3.2 0.00 0.00 0.00 85 1016.7
20260905151313 29 128 1.6 1.6 0.00 0.00 0.00 88 1016.6
20260905150813 28 249 3.2 4.8 0.00 0.00 0.00 87 1016.9
20260905150314 29 171 0.0 1.6 0.00 0.00 0.00 87 1017.0
20260905145811 28 299 1.6 1.6 0.00 0.00 0.00 88 1016.8
20260905145310 30 243 0.0 0.0 0.00 0.00 0.00 84 1016.9
20260905144809 30 227 0.0 1.6 0.00 0.00 0.00 87 1016.7
20260905144305 29 99 3.2 3.2 0.00 0.00 0.00 86 1016.9
20260905143804 28 118 3.2 3.2 0.00 0.00 0.00 89 1017.0
20260905143258 28 89 0.0 1.6 0.00 0.00 0.00 90 1016.9
20260905142757 27 191 0.0 0.0 0.00 0.00 0.00 92 1017.1
20260905142251 27 219 0.0 0.0 0.00 0.00 0.00 94 1017.0
20260905141748 26 305 3.2 3.2 0.00 0.00 0.00 94 1017.2
20260905141243 26 298 3.2 3.2 0.00 0.00 0.00 95 1017.1
20260905140738 26 229 3.2 3.2 0.00 0.00 0.00 98 1017.4
20260905140233 25 249 3.2 3.2 0.00 0.00 0.00 99 1017.2
20260905135732 25 304 1.6 3.2 0.00 0.00 0.00 99 1017.0
20260905135228 25 227 0.0 1.6 0.00 0.00 0.00 99 1017.3
20260905134727 25 271 0.0 0.0 0.00 0.00 0.00 99 1017.0
20260905134227 25 231 1.6 1.6 0.00 0.00 0.00 99 1016.9
20260905133722 24 220 0.0 1.6 0.00 0.00 0.00 99 1017.0
20260905133217 25 227 1.6 1.6 0.00 0.00 0.00 99 1017.0